Time,TemperatureF,DewpointF,PressureIn,WindDirection,WindDirectionDegrees,WindSpeedMPH,WindSpeedGustMPH,Humidity,HourlyPrecipIn,Conditions,Clouds,dailyrainin,SolarRadiationWatts/m^2,SoftwareType,DateUTC
2018-04-26 00:02:00,52.3,47.0,30.00,NNW,348,0.0,0.0,82,0.00,,,0.00,0,Wunderground v.1.15,2018-04-26 07:02:00,
2018-04-26 00:08:00,52.0,47.3,30.00,NNW,348,0.0,0.0,84,0.00,,,0.00,0,Wunderground v.1.15,2018-04-26 07:08:00,
2018-04-26 01:42:00,47.9,45.7,29.99,NNW,348,0.0,1.0,92,0.00,,,0.00,0,Wunderground v.1.15,2018-04-26 08:42:00,
2018-04-26 01:48:00,47.8,45.6,29.99,NNW,348,0.0,1.0,92,0.00,,,0.00,0,Wunderground v.1.15,2018-04-26 08:48:00,
2018-04-26 01:53:00,47.6,45.4,29.99,NNW,348,0.0,1.0,92,0.00,,,0.00,0,Wunderground v.1.15,2018-04-26 08:53:00,
2018-04-26 01:58:00,47.6,45.4,29.99,NNW,348,0.0,1.0,92,0.00,,,0.00,0,Wunderground v.1.15,2018-04-26 08:58:00,
2018-04-26 02:03:00,47.5,45.3,29.99,NNW,348,0.0,1.0,92,0.00,,,0.00,0,Wunderground v.1.15,2018-04-26 09:03:00,
2018-04-26 02:09:00,47.3,45.4,29.99,NNW,348,1.0,4.0,93,0.00,,,0.00,0,Wunderground v.1.15,2018-04-26 09:09:00,
2018-04-26 02:14:00,47.1,45.2,29.99,NNW,348,1.0,1.0,93,0.00,,,0.00,0,Wunderground v.1.15,2018-04-26 09:14:00,
2018-04-26 02:19:00,47.2,45.3,29.99,NNW,348,0.0,1.0,93,0.00,,,0.00,0,Wunderground v.1.15,2018-04-26 09:19:00,
2018-04-26 02:24:00,47.2,45.3,29.99,NNW,348,0.0,0.0,93,0.00,,,0.00,0,Wunderground v.1.15,2018-04-26 09:24:00,
2018-04-26 02:29:00,47.0,45.1,29.99,NNW,348,0.0,0.0,93,0.00,,,0.00,0,Wunderground v.1.15,2018-04-26 09:29:00,
2018-04-26 02:35:00,46.8,44.9,29.99,NNW,348,0.0,0.0,93,0.00,,,0.00,0,Wunderground v.1.15,2018-04-26 09:35:00,
2018-04-26 02:40:00,46.6,44.7,29.99,NNW,348,0.0,0.0,93,0.00,,,0.00,0,Wunderground v.1.15,2018-04-26 09:40:00,
2018-04-26 02:45:00,46.4,44.8,29.98,NNW,348,0.0,0.0,94,0.00,,,0.00,0,Wunderground v.1.15,2018-04-26 09:45:00,
2018-04-26 02:50:00,46.3,44.7,29.99,NNW,348,0.0,0.0,94,0.00,,,0.00,0,Wunderground v.1.15,2018-04-26 09:50:00,
2018-04-26 02:55:00,46.3,44.7,29.98,NNW,348,0.0,0.0,94,0.00,,,0.00,0,Wunderground v.1.15,2018-04-26 09:55:00,
2018-04-26 03:01:00,46.5,44.9,29.98,NNW,348,0.0,2.0,94,0.00,,,0.00,0,Wunderground v.1.15,2018-04-26 10:01:00,
2018-04-26 03:06:00,46.5,44.9,29.99,NNW,348,0.0,2.0,94,0.00,,,0.00,0,Wunderground v.1.15,2018-04-26 10:06:00,
2018-04-26 03:11:00,46.4,44.8,29.98,NNW,348,0.0,0.0,94,0.00,,,0.00,0,Wunderground v.1.15,2018-04-26 10:11:00,
2018-04-26 03:16:00,46.3,44.7,29.98,NNW,348,0.0,0.0,94,0.00,,,0.00,0,Wunderground v.1.15,2018-04-26 10:16:00,
2018-04-26 03:21:00,46.2,44.3,29.98,NNW,348,0.0,0.0,93,0.00,,,0.00,0,Wunderground v.1.15,2018-04-26 10:21:00,
2018-04-26 03:27:00,46.1,44.2,29.98,NNW,348,0.0,0.0,93,0.00,,,0.00,0,Wunderground v.1.15,2018-04-26 10:27:00,
2018-04-26 03:32:00,46.0,44.1,29.98,NNW,348,0.0,0.0,93,0.00,,,0.00,0,Wunderground v.1.15,2018-04-26 10:32:00,
2018-04-26 03:37:00,46.0,44.6,29.98,NNW,348,0.0,0.0,95,0.00,,,0.00,0,Wunderground v.1.15,2018-04-26 10:37:00,
2018-04-26 03:42:00,46.1,44.7,29.99,NNW,348,0.0,0.0,95,0.00,,,0.00,0,Wunderground v.1.15,2018-04-26 10:42:00,
2018-04-26 03:47:00,46.0,44.6,29.99,NNW,348,0.0,0.0,95,0.00,,,0.00,0,Wunderground v.1.15,2018-04-26 10:47:00,
2018-04-26 03:53:00,45.9,44.5,29.99,NNW,348,0.0,0.0,95,0.00,,,0.00,0,Wunderground v.1.15,2018-04-26 10:53:00,
2018-04-26 03:58:00,45.9,44.5,29.98,NNW,348,0.0,0.0,95,0.00,,,0.00,0,Wunderground v.1.15,2018-04-26 10:58:00,
2018-04-26 04:03:00,45.8,44.7,29.98,NNW,348,0.0,1.0,96,0.00,,,0.00,0,Wunderground v.1.15,2018-04-26 11:03:00,
2018-04-26 04:08:00,45.7,44.6,29.98,NNW,348,0.0,1.0,96,0.00,,,0.00,0,Wunderground v.1.15,2018-04-26 11:08:00,
2018-04-26 04:13:00,45.5,44.2,29.98,NNW,348,0.0,0.0,95,0.00,,,0.00,0,Wunderground v.1.15,2018-04-26 11:13:00,
2018-04-26 04:19:00,45.1,43.8,29.99,NNW,348,0.0,0.0,95,0.00,,,0.00,0,Wunderground v.1.15,2018-04-26 11:19:00,
2018-04-26 04:24:00,45.0,43.7,29.99,NNW,348,0.0,0.0,95,0.00,,,0.00,0,Wunderground v.1.15,2018-04-26 11:24:00,
2018-04-26 04:29:00,44.8,43.5,29.99,NNW,348,0.0,0.0,95,0.00,,,0.00,0,Wunderground v.1.15,2018-04-26 11:29:00,
2018-04-26 04:34:00,44.8,43.7,29.99,NNW,348,0.0,0.0,96,0.00,,,0.00,0,Wunderground v.1.15,2018-04-26 11:34:00,
2018-04-26 04:39:00,44.8,43.7,29.99,NNW,348,0.0,0.0,96,0.00,,,0.00,0,Wunderground v.1.15,2018-04-26 11:39:00,
2018-04-26 04:45:00,44.8,43.7,29.99,NNW,348,0.0,0.0,96,0.00,,,0.00,0,Wunderground v.1.15,2018-04-26 11:45:00,
2018-04-26 04:50:00,44.5,43.4,29.99,NNW,348,0.0,0.0,96,0.00,,,0.00,0,Wunderground v.1.15,2018-04-26 11:50:00,
2018-04-26 04:55:00,44.3,43.2,29.98,NNW,348,0.0,0.0,96,0.00,,,0.00,0,Wunderground v.1.15,2018-04-26 11:55:00,
2018-04-26 05:00:00,44.0,42.9,29.98,NNW,348,0.0,0.0,96,0.00,,,0.00,0,Wunderground v.1.15,2018-04-26 12:00:00,
2018-04-26 05:05:00,43.6,42.5,29.98,NNW,348,0.0,0.0,96,0.00,,,0.00,0,Wunderground v.1.15,2018-04-26 12:05:00,
2018-04-26 05:10:00,43.5,42.4,29.99,NNW,348,0.0,0.0,96,0.00,,,0.00,0,Wunderground v.1.15,2018-04-26 12:10:00,
2018-04-26 05:15:00,43.4,42.3,29.98,NNW,348,0.0,0.0,96,0.00,,,0.00,0,Wunderground v.1.15,2018-04-26 12:15:00,
2018-04-26 05:20:00,43.3,42.5,29.98,NNW,348,1.0,1.0,97,0.00,,,0.00,0,Wunderground v.1.15,2018-04-26 12:20:00,
2018-04-26 05:25:00,43.2,42.1,29.98,NNW,348,1.0,1.0,96,0.00,,,0.00,0,Wunderground v.1.15,2018-04-26 12:25:00,
2018-04-26 05:30:00,43.1,42.3,29.98,NNW,348,0.0,0.0,97,0.00,,,0.00,0,Wunderground v.1.15,2018-04-26 12:30:00,
2018-04-26 05:35:00,43.0,42.2,29.98,NNW,348,0.0,0.0,97,0.00,,,0.00,0,Wunderground v.1.15,2018-04-26 12:35:00,
2018-04-26 05:41:00,42.9,42.1,29.98,NNW,348,0.0,0.0,97,0.00,,,0.00,0,Wunderground v.1.15,2018-04-26 12:41:00,
2018-04-26 05:46:00,42.8,42.0,29.98,NNW,348,0.0,0.0,97,0.00,,,0.00,0,Wunderground v.1.15,2018-04-26 12:46:00,
2018-04-26 05:51:00,42.7,41.9,29.98,NNW,348,0.0,0.0,97,0.00,,,0.00,0,Wunderground v.1.15,2018-04-26 12:51:00,
2018-04-26 05:56:00,42.7,41.9,29.98,NNW,348,0.0,0.0,97,0.00,,,0.00,0,Wunderground v.1.15,2018-04-26 12:56:00,
2018-04-26 06:01:00,42.7,41.9,29.98,NNW,348,0.0,2.0,97,0.00,,,0.00,0,Wunderground v.1.15,2018-04-26 13:01:00,
2018-04-26 06:07:00,42.6,41.8,29.97,NNW,348,0.0,2.0,97,0.00,,,0.00,5,Wunderground v.1.15,2018-04-26 13:07:00,
2018-04-26 06:12:00,42.6,41.8,29.97,NNW,348,0.0,1.0,97,0.00,,,0.00,7,Wunderground v.1.15,2018-04-26 13:12:00,
2018-04-26 06:17:00,42.4,41.6,29.98,NNW,348,0.0,1.0,97,0.00,,,0.00,11,Wunderground v.1.15,2018-04-26 13:17:00,
2018-04-26 06:22:00,42.3,41.2,29.98,NNW,348,0.0,0.0,96,0.00,,,0.00,16,Wunderground v.1.15,2018-04-26 13:22:00,
2018-04-26 06:27:00,42.3,41.2,29.98,NNW,348,0.0,0.0,96,0.00,,,0.00,19,Wunderground v.1.15,2018-04-26 13:27:00,
2018-04-26 06:33:00,42.1,41.3,29.98,NNW,348,0.0,0.0,97,0.00,,,0.00,25,Wunderground v.1.15,2018-04-26 13:33:00,
2018-04-26 06:38:00,42.1,41.3,29.98,NNW,348,0.0,0.0,97,0.00,,,0.00,32,Wunderground v.1.15,2018-04-26 13:38:00,
2018-04-26 06:43:00,42.0,41.2,29.98,NNW,348,0.0,0.0,97,0.00,,,0.00,37,Wunderground v.1.15,2018-04-26 13:43:00,
2018-04-26 06:48:00,41.9,40.8,29.97,NNW,348,0.0,0.0,96,0.00,,,0.00,46,Wunderground v.1.15,2018-04-26 13:48:00,
2018-04-26 06:53:00,42.1,41.0,29.97,NNW,348,0.0,0.0,96,0.00,,,0.00,53,Wunderground v.1.15,2018-04-26 13:53:00,
2018-04-26 06:59:00,42.5,41.4,29.97,NNW,348,0.0,0.0,96,0.00,,,0.00,67,Wunderground v.1.15,2018-04-26 13:59:00,
2018-04-26 07:04:00,42.6,41.5,29.98,NNW,348,0.0,0.0,96,0.00,,,0.00,77,Wunderground v.1.15,2018-04-26 14:04:00,
2018-04-26 07:09:00,42.9,41.6,29.98,NNW,348,0.0,0.0,95,0.00,,,0.00,90,Wunderground v.1.15,2018-04-26 14:09:00,
2018-04-26 07:14:00,43.3,42.0,29.98,NNW,348,0.0,0.0,95,0.00,,,0.00,102,Wunderground v.1.15,2018-04-26 14:14:00,
2018-04-26 07:19:00,43.7,42.1,29.98,NNW,348,0.0,0.0,94,0.00,,,0.00,114,Wunderground v.1.15,2018-04-26 14:19:00,
2018-04-26 07:25:00,44.2,42.6,29.98,NNW,348,0.0,0.0,94,0.00,,,0.00,132,Wunderground v.1.15,2018-04-26 14:25:00,
2018-04-26 07:30:00,44.8,42.9,29.98,NNW,348,0.0,0.0,93,0.00,,,0.00,142,Wunderground v.1.15,2018-04-26 14:30:00,
2018-04-26 07:35:00,45.6,43.4,29.98,NNW,348,0.0,0.0,92,0.00,,,0.00,158,Wunderground v.1.15,2018-04-26 14:35:00,
2018-04-26 07:40:00,46.2,44.0,29.97,NNW,348,0.0,0.0,92,0.00,,,0.00,171,Wunderground v.1.15,2018-04-26 14:40:00,
2018-04-26 07:45:00,46.9,44.7,29.98,NNW,348,0.0,2.0,92,0.00,,,0.00,183,Wunderground v.1.15,2018-04-26 14:45:00,
2018-04-26 07:51:00,47.6,45.4,29.98,NNW,348,0.0,0.0,92,0.00,,,0.00,197,Wunderground v.1.15,2018-04-26 14:51:00,
2018-04-26 07:56:00,48.2,46.3,29.98,NNW,348,0.0,0.0,93,0.00,,,0.00,213,Wunderground v.1.15,2018-04-26 14:56:00,
2018-04-26 08:01:00,48.8,47.2,29.98,NNW,348,0.0,1.0,94,0.00,,,0.00,229,Wunderground v.1.15,2018-04-26 15:01:00,
2018-04-26 08:06:00,49.5,48.1,29.98,NNW,348,0.0,1.0,95,0.00,,,0.00,246,Wunderground v.1.15,2018-04-26 15:06:00,
2018-04-26 08:11:00,50.1,49.0,29.98,NNW,348,0.0,0.0,96,0.00,,,0.00,255,Wunderground v.1.15,2018-04-26 15:11:00,
2018-04-26 08:17:00,50.8,49.7,29.98,NNW,348,0.0,4.0,96,0.00,,,0.00,274,Wunderground v.1.15,2018-04-26 15:17:00,
2018-04-26 08:22:00,51.4,50.3,29.98,NNW,348,0.0,1.0,96,0.00,,,0.00,287,Wunderground v.1.15,2018-04-26 15:22:00,
2018-04-26 08:27:00,51.7,50.6,29.98,NNW,348,0.0,2.0,96,0.00,,,0.00,301,Wunderground v.1.15,2018-04-26 15:27:00,
2018-04-26 08:32:00,51.9,50.5,29.97,NNW,348,1.0,2.0,95,0.00,,,0.00,320,Wunderground v.1.15,2018-04-26 15:32:00,
2018-04-26 08:37:00,52.4,51.0,29.97,NNW,348,1.0,2.0,95,0.00,,,0.00,332,Wunderground v.1.15,2018-04-26 15:37:00,
2018-04-26 08:43:00,53.1,51.4,29.97,NNW,348,1.0,1.0,94,0.00,,,0.00,353,Wunderground v.1.15,2018-04-26 15:43:00,
2018-04-26 08:48:00,53.7,52.0,29.97,NNW,348,0.0,1.0,94,0.00,,,0.00,369,Wunderground v.1.15,2018-04-26 15:48:00,
2018-04-26 08:53:00,54.5,52.2,29.97,NNW,348,0.0,0.0,92,0.00,,,0.00,383,Wunderground v.1.15,2018-04-26 15:53:00,
2018-04-26 08:58:00,55.5,52.9,29.97,NNW,348,0.0,0.0,91,0.00,,,0.00,396,Wunderground v.1.15,2018-04-26 15:58:00,
2018-04-26 09:03:00,56.3,53.1,29.97,NNW,348,0.0,2.0,89,0.00,,,0.00,410,Wunderground v.1.15,2018-04-26 16:03:00,
2018-04-26 09:09:00,57.6,54.1,29.97,NNW,348,0.0,2.0,88,0.00,,,0.00,424,Wunderground v.1.15,2018-04-26 16:09:00,
2018-04-26 09:14:00,58.6,54.7,29.97,SSW,211,1.0,5.0,87,0.00,,,0.00,441,Wunderground v.1.15,2018-04-26 16:14:00,
2018-04-26 09:19:00,59.0,54.8,29.97,SSW,211,2.0,5.0,86,0.00,,,0.00,452,Wunderground v.1.15,2018-04-26 16:19:00,
2018-04-26 09:24:00,59.3,54.8,29.97,SSW,211,3.0,3.0,85,0.00,,,0.00,466,Wunderground v.1.15,2018-04-26 16:24:00,
2018-04-26 09:29:00,59.5,54.3,29.97,SSW,211,2.0,3.0,83,0.00,,,0.00,476,Wunderground v.1.15,2018-04-26 16:29:00,
2018-04-26 09:34:00,59.9,55.1,29.97,SSW,211,2.0,3.0,84,0.00,,,0.00,490,Wunderground v.1.15,2018-04-26 16:34:00,
2018-04-26 09:39:00,60.4,55.2,29.97,SSW,211,2.0,3.0,83,0.00,,,0.00,501,Wunderground v.1.15,2018-04-26 16:39:00,
2018-04-26 09:44:00,60.9,55.7,29.97,SSW,211,1.0,2.0,83,0.00,,,0.00,515,Wunderground v.1.15,2018-04-26 16:44:00,
2018-04-26 09:49:00,61.5,56.3,29.97,SW,219,1.0,3.0,83,0.00,,,0.00,526,Wunderground v.1.15,2018-04-26 16:49:00,
2018-04-26 09:54:00,61.8,55.6,29.97,SW,221,3.0,4.0,80,0.00,,,0.00,538,Wunderground v.1.15,2018-04-26 16:54:00,
2018-04-26 09:59:00,62.3,56.4,29.96,SW,230,3.0,4.0,81,0.00,,,0.00,550,Wunderground v.1.15,2018-04-26 16:59:00,
2018-04-26 10:05:00,63.1,56.8,29.96,SW,230,2.0,3.0,80,0.00,,,0.00,566,Wunderground v.1.15,2018-04-26 17:05:00,
2018-04-26 10:11:00,64.0,57.0,29.96,SW,230,1.0,1.0,78,0.00,,,0.00,578,Wunderground v.1.15,2018-04-26 17:11:00,
2018-04-26 10:16:00,65.0,57.6,29.96,SW,230,0.0,1.0,77,0.00,,,0.00,594,Wunderground v.1.15,2018-04-26 17:16:00,
2018-04-26 10:22:00,66.1,58.7,29.95,SW,230,1.0,3.0,77,0.00,,,0.00,606,Wunderground v.1.15,2018-04-26 17:22:00,
2018-04-26 10:27:00,66.8,57.9,29.95,WNW,284,2.0,3.0,73,0.00,,,0.00,615,Wunderground v.1.15,2018-04-26 17:27:00,
2018-04-26 10:32:00,67.5,55.3,29.95,NNE,22,1.0,3.0,65,0.00,,,0.00,626,Wunderground v.1.15,2018-04-26 17:32:00,
2018-04-26 10:37:00,68.2,54.2,29.95,North,5,3.0,5.0,61,0.00,,,0.00,638,Wunderground v.1.15,2018-04-26 17:37:00,
2018-04-26 10:42:00,68.6,54.2,29.95,NNE,12,4.0,4.0,60,0.00,,,0.00,643,Wunderground v.1.15,2018-04-26 17:42:00,
2018-04-26 10:48:00,69.2,55.2,29.95,North,5,4.0,5.0,61,0.00,,,0.00,656,Wunderground v.1.15,2018-04-26 17:48:00,
2018-04-26 10:53:00,69.6,54.6,29.95,NNE,17,3.0,3.0,59,0.00,,,0.00,666,Wunderground v.1.15,2018-04-26 17:53:00,
2018-04-26 10:58:00,70.4,55.4,29.94,North,355,3.0,6.0,59,0.00,,,0.00,671,Wunderground v.1.15,2018-04-26 17:58:00,
2018-04-26 11:03:00,70.9,54.9,29.95,NNE,19,3.0,7.0,57,0.00,,,0.00,680,Wunderground v.1.15,2018-04-26 18:03:00,
2018-04-26 11:08:00,71.2,55.7,29.94,NNE,27,3.0,7.0,58,0.00,,,0.00,691,Wunderground v.1.15,2018-04-26 18:08:00,
2018-04-26 11:14:00,71.7,55.2,29.95,North,350,3.0,6.0,56,0.00,,,0.00,694,Wunderground v.1.15,2018-04-26 18:14:00,
2018-04-26 11:19:00,71.6,55.6,29.95,North,5,3.0,6.0,57,0.00,,,0.00,708,Wunderground v.1.15,2018-04-26 18:19:00,
2018-04-26 11:24:00,71.9,55.8,29.94,NE,37,3.0,5.0,57,0.00,,,0.00,719,Wunderground v.1.15,2018-04-26 18:24:00,
2018-04-26 11:29:00,72.0,55.9,29.94,North,5,3.0,5.0,57,0.00,,,0.00,724,Wunderground v.1.15,2018-04-26 18:29:00,
2018-04-26 11:34:00,72.4,56.3,29.94,North,355,3.0,5.0,57,0.00,,,0.00,731,Wunderground v.1.15,2018-04-26 18:34:00,
2018-04-26 11:40:00,72.9,55.8,29.94,NE,41,2.0,6.0,55,0.00,,,0.00,742,Wunderground v.1.15,2018-04-26 18:40:00,
2018-04-26 11:45:00,73.0,55.4,29.93,ENE,70,3.0,6.0,54,0.00,,,0.00,745,Wunderground v.1.15,2018-04-26 18:45:00,
2018-04-26 11:50:00,73.2,55.6,29.93,NE,38,4.0,4.0,54,0.00,,,0.00,754,Wunderground v.1.15,2018-04-26 18:50:00,
2018-04-26 11:51:00,73.2,55.6,29.93,NE,38,4.0,4.0,54,0.00,,,0.00,752,Wunderground v.1.15,2018-04-26 18:51:00,
2018-04-26 11:56:00,73.5,56.8,29.93,NNE,22,4.0,8.0,56,0.00,,,0.00,761,Wunderground v.1.15,2018-04-26 18:56:00,
2018-04-26 12:02:00,73.9,58.2,29.93,NNW,346,4.0,9.0,58,0.00,,,0.00,766,Wunderground v.1.15,2018-04-26 19:02:00,
2018-04-26 12:07:00,74.2,56.0,29.93,North,360,4.0,9.0,53,0.00,,,0.00,772,Wunderground v.1.15,2018-04-26 19:07:00,
2018-04-26 12:12:00,74.7,56.4,29.92,NNE,23,3.0,6.0,53,0.00,,,0.00,777,Wunderground v.1.15,2018-04-26 19:12:00,
2018-04-26 12:17:00,74.7,55.9,29.92,North,9,4.0,6.0,52,0.00,,,0.00,779,Wunderground v.1.15,2018-04-26 19:17:00,
2018-04-26 12:22:00,74.9,57.1,29.92,North,355,4.0,5.0,54,0.00,,,0.00,782,Wunderground v.1.15,2018-04-26 19:22:00,
2018-04-26 12:28:00,75.4,56.5,29.92,NNE,32,3.0,5.0,52,0.00,,,0.00,788,Wunderground v.1.15,2018-04-26 19:28:00,
2018-04-26 12:33:00,75.4,56.0,29.92,ENE,74,4.0,7.0,51,0.00,,,0.00,791,Wunderground v.1.15,2018-04-26 19:33:00,
2018-04-26 12:38:00,75.5,56.1,29.92,NNE,31,5.0,7.0,51,0.00,,,0.00,793,Wunderground v.1.15,2018-04-26 19:38:00,
2018-04-26 12:43:00,75.8,56.4,29.92,NNE,24,4.0,6.0,51,0.00,,,0.00,798,Wunderground v.1.15,2018-04-26 19:43:00,
2018-04-26 12:48:00,76.2,57.3,29.91,NNE,30,3.0,7.0,52,0.00,,,0.00,802,Wunderground v.1.15,2018-04-26 19:48:00,
2018-04-26 12:54:00,76.5,55.9,29.91,NNE,14,4.0,8.0,49,0.00,,,0.00,803,Wunderground v.1.15,2018-04-26 19:54:00,
2018-04-26 12:59:00,76.9,56.3,29.91,NE,44,4.0,8.0,49,0.00,,,0.00,802,Wunderground v.1.15,2018-04-26 19:59:00,
2018-04-26 13:04:00,77.1,56.5,29.90,NE,49,4.0,8.0,49,0.00,,,0.00,803,Wunderground v.1.15,2018-04-26 20:04:00,
2018-04-26 13:09:00,77.2,56.6,29.90,North,11,5.0,8.0,49,0.00,,,0.00,805,Wunderground v.1.15,2018-04-26 20:09:00,
2018-04-26 13:14:00,77.5,57.4,29.90,NE,51,5.0,6.0,50,0.00,,,0.00,803,Wunderground v.1.15,2018-04-26 20:14:00,
2018-04-26 13:20:00,78.1,56.8,29.90,North,355,4.0,7.0,48,0.00,,,0.00,805,Wunderground v.1.15,2018-04-26 20:20:00,
2018-04-26 13:25:00,78.2,55.7,29.90,NE,46,5.0,7.0,46,0.00,,,0.00,807,Wunderground v.1.15,2018-04-26 20:25:00,
2018-04-26 13:30:00,78.4,57.1,29.90,NNE,18,5.0,8.0,48,0.00,,,0.00,803,Wunderground v.1.15,2018-04-26 20:30:00,
2018-04-26 13:35:00,78.6,56.7,29.90,ENE,58,4.0,8.0,47,0.00,,,0.00,803,Wunderground v.1.15,2018-04-26 20:35:00,
2018-04-26 13:40:00,79.1,57.1,29.89,ENE,68,5.0,6.0,47,0.00,,,0.00,802,Wunderground v.1.15,2018-04-26 20:40:00,
2018-04-26 13:46:00,79.2,56.6,29.89,ENE,60,5.0,7.0,46,0.00,,,0.00,800,Wunderground v.1.15,2018-04-26 20:46:00,
2018-04-26 13:51:00,79.4,56.2,29.89,NE,35,6.0,6.0,45,0.00,,,0.00,798,Wunderground v.1.15,2018-04-26 20:51:00,
2018-04-26 13:56:00,79.8,57.2,29.89,North,355,5.0,6.0,46,0.00,,,0.00,796,Wunderground v.1.15,2018-04-26 20:56:00,
2018-04-26 14:01:00,80.1,56.8,29.88,NNE,25,5.0,7.0,45,0.00,,,0.00,793,Wunderground v.1.15,2018-04-26 21:01:00,
2018-04-26 14:06:00,80.1,55.6,29.88,NE,51,6.0,9.0,43,0.00,,,0.00,789,Wunderground v.1.15,2018-04-26 21:06:00,
2018-04-26 14:12:00,80.3,56.4,29.88,NE,55,5.0,5.0,44,0.00,,,0.00,791,Wunderground v.1.15,2018-04-26 21:12:00,
2018-04-26 14:17:00,81.0,56.4,29.88,NNE,28,4.0,6.0,43,0.00,,,0.00,788,Wunderground v.1.15,2018-04-26 21:17:00,
2018-04-26 14:22:00,81.4,55.4,29.88,North,9,5.0,6.0,41,0.00,,,0.00,782,Wunderground v.1.15,2018-04-26 21:22:00,
2018-04-26 14:27:00,81.4,54.8,29.88,NE,45,5.0,8.0,40,0.00,,,0.00,777,Wunderground v.1.15,2018-04-26 21:27:00,
2018-04-26 14:32:00,81.4,55.4,29.88,NE,53,5.0,7.0,41,0.00,,,0.00,775,Wunderground v.1.15,2018-04-26 21:32:00,
2018-04-26 14:37:00,81.2,55.3,29.87,NE,41,6.0,8.0,41,0.00,,,0.00,768,Wunderground v.1.15,2018-04-26 21:37:00,
2018-04-26 14:42:00,81.2,54.6,29.87,North,11,6.0,6.0,40,0.00,,,0.00,761,Wunderground v.1.15,2018-04-26 21:42:00,
2018-04-26 14:47:00,81.3,56.0,29.87,North,5,6.0,6.0,42,0.00,,,0.00,754,Wunderground v.1.15,2018-04-26 21:47:00,
2018-04-26 14:52:00,81.6,56.3,29.87,NNE,24,6.0,6.0,42,0.00,,,0.00,747,Wunderground v.1.15,2018-04-26 21:52:00,
2018-04-26 14:57:00,81.8,55.1,29.86,NE,38,6.0,8.0,40,0.00,,,0.00,745,Wunderground v.1.15,2018-04-26 21:57:00,
2018-04-26 15:02:00,82.0,54.6,29.86,North,9,6.0,10.0,39,0.00,,,0.00,740,Wunderground v.1.15,2018-04-26 22:02:00,
2018-04-26 15:08:00,82.4,55.0,29.86,North,9,7.0,10.0,39,0.00,,,0.00,731,Wunderground v.1.15,2018-04-26 22:08:00,
2018-04-26 15:13:00,82.3,55.6,29.86,NNE,24,7.0,7.0,40,0.00,,,0.00,721,Wunderground v.1.15,2018-04-26 22:13:00,
2018-04-26 15:18:00,82.3,55.6,29.85,NNE,13,7.0,9.0,40,0.00,,,0.00,714,Wunderground v.1.15,2018-04-26 22:18:00,
2018-04-26 15:23:00,82.2,54.1,29.85,North,5,7.0,13.0,38,0.00,,,0.00,705,Wunderground v.1.15,2018-04-26 22:23:00,
2018-04-26 15:28:00,82.2,54.8,29.85,NNE,20,7.0,13.0,39,0.00,,,0.00,698,Wunderground v.1.15,2018-04-26 22:28:00,
2018-04-26 15:34:00,82.5,54.3,29.85,NE,39,7.0,8.0,38,0.00,,,0.00,687,Wunderground v.1.15,2018-04-26 22:34:00,
2018-04-26 15:39:00,82.7,55.9,29.85,NNE,23,7.0,9.0,40,0.00,,,0.00,680,Wunderground v.1.15,2018-04-26 22:39:00,
2018-04-26 15:44:00,82.8,55.3,29.84,North,355,7.0,9.0,39,0.00,,,0.00,671,Wunderground v.1.15,2018-04-26 22:44:00,
2018-04-26 15:49:00,82.9,55.4,29.84,North,5,7.0,9.0,39,0.00,,,0.00,663,Wunderground v.1.15,2018-04-26 22:49:00,
2018-04-26 15:54:00,82.9,55.4,29.84,NNW,348,7.0,10.0,39,0.00,,,0.00,657,Wunderground v.1.15,2018-04-26 22:54:00,
2018-04-26 16:00:00,82.9,55.4,29.84,NNE,26,7.0,8.0,39,0.00,,,0.00,640,Wunderground v.1.15,2018-04-26 23:00:00,
2018-04-26 16:05:00,83.1,55.6,29.83,ENE,65,6.0,13.0,39,0.00,,,0.00,628,Wunderground v.1.15,2018-04-26 23:05:00,
2018-04-26 16:06:00,83.2,55.0,29.83,NE,39,6.0,13.0,38,0.00,,,0.00,628,Wunderground v.1.15,2018-04-26 23:06:00,
2018-04-26 16:11:00,83.4,55.1,29.83,NNE,12,7.0,9.0,38,0.00,,,0.00,619,Wunderground v.1.15,2018-04-26 23:11:00,
2018-04-26 16:17:00,83.4,55.1,29.83,NNE,26,7.0,9.0,38,0.00,,,0.00,610,Wunderground v.1.15,2018-04-26 23:17:00,
2018-04-26 16:22:00,83.4,54.4,29.83,NNE,12,7.0,8.0,37,0.00,,,0.00,596,Wunderground v.1.15,2018-04-26 23:22:00,
2018-04-26 16:27:00,83.7,54.7,29.83,NNE,24,7.0,8.0,37,0.00,,,0.00,587,Wunderground v.1.15,2018-04-26 23:27:00,
2018-04-26 16:32:00,83.7,53.9,29.83,North,5,8.0,12.0,36,0.00,,,0.00,575,Wunderground v.1.15,2018-04-26 23:32:00,
2018-04-26 16:37:00,83.5,54.5,29.82,North,9,9.0,13.0,37,0.00,,,0.00,566,Wunderground v.1.15,2018-04-26 23:37:00,
2018-04-26 16:43:00,83.4,54.4,29.82,NNE,26,8.0,9.0,37,0.00,,,0.00,552,Wunderground v.1.15,2018-04-26 23:43:00,
2018-04-26 16:48:00,83.6,55.3,29.82,NNW,333,8.0,9.0,38,0.00,,,0.00,543,Wunderground v.1.15,2018-04-26 23:48:00,
2018-04-26 16:53:00,83.6,53.8,29.82,ENE,69,8.0,9.0,36,0.00,,,0.00,527,Wunderground v.1.15,2018-04-26 23:53:00,
2018-04-26 16:58:00,83.8,56.2,29.82,North,355,7.0,12.0,39,0.00,,,0.00,517,Wunderground v.1.15,2018-04-26 23:58:00,
2018-04-26 17:03:00,83.7,53.1,29.82,NNE,20,8.0,11.0,35,0.00,,,0.00,506,Wunderground v.1.15,2018-04-27 00:03:00,
2018-04-26 17:09:00,83.7,55.4,29.81,North,5,9.0,11.0,38,0.00,,,0.00,487,Wunderground v.1.15,2018-04-27 00:09:00,
2018-04-26 17:14:00,83.9,55.6,29.81,NNW,348,7.0,8.0,38,0.00,,,0.00,478,Wunderground v.1.15,2018-04-27 00:14:00,
2018-04-26 17:19:00,84.1,54.3,29.81,North,5,6.0,8.0,36,0.00,,,0.00,464,Wunderground v.1.15,2018-04-27 00:19:00,
2018-04-26 17:24:00,83.8,54.7,29.81,NNW,334,7.0,11.0,37,0.00,,,0.00,452,Wunderground v.1.15,2018-04-27 00:24:00,
2018-04-26 17:29:00,83.7,54.7,29.81,NNE,23,7.0,11.0,37,0.00,,,0.00,439,Wunderground v.1.15,2018-04-27 00:29:00,
2018-04-26 17:35:00,83.8,55.5,29.81,North,350,6.0,8.0,38,0.00,,,0.00,424,Wunderground v.1.15,2018-04-27 00:35:00,
2018-04-26 17:40:00,83.9,54.8,29.80,North,5,6.0,6.0,37,0.00,,,0.00,408,Wunderground v.1.15,2018-04-27 00:40:00,
2018-04-26 17:45:00,83.8,54.7,29.80,NNW,348,7.0,12.0,37,0.00,,,0.00,392,Wunderground v.1.15,2018-04-27 00:45:00,
2018-04-26 17:50:00,83.6,55.3,29.80,NNE,13,6.0,6.0,38,0.00,,,0.00,378,Wunderground v.1.15,2018-04-27 00:50:00,
2018-04-26 17:55:00,83.6,54.6,29.80,NE,40,7.0,10.0,37,0.00,,,0.00,359,Wunderground v.1.15,2018-04-27 00:55:00,
2018-04-26 18:01:00,82.9,59.4,29.80,NW,325,8.0,12.0,45,0.00,,,0.00,341,Wunderground v.1.15,2018-04-27 01:01:00,
2018-04-26 18:06:00,81.4,60.4,29.80,WNW,302,10.0,14.0,49,0.00,,,0.00,325,Wunderground v.1.15,2018-04-27 01:06:00,
2018-04-26 18:11:00,80.3,61.1,29.80,NNE,17,10.0,10.0,52,0.00,,,0.00,311,Wunderground v.1.15,2018-04-27 01:11:00,
2018-04-26 18:16:00,79.2,61.1,29.80,North,355,10.0,14.0,54,0.00,,,0.00,295,Wunderground v.1.15,2018-04-27 01:16:00,
2018-04-26 18:21:00,78.4,61.4,29.80,North,5,10.0,10.0,56,0.00,,,0.00,283,Wunderground v.1.15,2018-04-27 01:21:00,
2018-04-26 18:27:00,77.8,60.8,29.80,North,355,9.0,10.0,56,0.00,,,0.00,264,Wunderground v.1.15,2018-04-27 01:27:00,